Time,TemperatureF,DewpointF,PressureIn,WindDirection,WindDirectionDegrees,WindSpeedMPH,WindSpeedGustMPH,Humidity,HourlyPrecipIn,Conditions,Clouds,dailyrainin,SoftwareType,DateUTC
2013-09-11 00:04:00,78.3,66.4,29.88,WSW,247,3.2,-999.0,67,-99.99,,,0.00,Acu-Link.com,2013-09-11 04:04:00,
2013-09-11 00:24:00,78.3,66.4,29.88,South,180,0.0,-999.0,67,-99.99,,,0.00,Acu-Link.com,2013-09-11 04:24:00,
2013-09-11 00:39:00,77.9,66.5,29.88,South,180,3.2,-999.0,68,-99.99,,,0.00,Acu-Link.com,2013-09-11 04:39:00,
2013-09-11 00:54:00,78.1,66.7,29.88,SSE,157,3.7,-999.0,68,-99.99,,,0.00,Acu-Link.com,2013-09-11 04:54:00,
2013-09-11 01:10:00,78.4,66.9,29.88,South,180,2.2,-999.0,68,-99.99,,,0.00,Acu-Link.com,2013-09-11 05:10:00,
2013-09-11 01:34:00,78.4,66.9,29.88,SSW,202,3.2,-999.0,68,-99.99,,,0.00,Acu-Link.com,2013-09-11 05:34:00,
2013-09-11 01:50:00,78.1,66.2,29.88,West,270,3.2,-999.0,67,-99.99,,,0.00,Acu-Link.com,2013-09-11 05:50:00,
2013-09-11 02:08:00,77.9,66.5,29.88,SSE,157,4.2,-999.0,68,-99.99,,,0.00,Acu-Link.com,2013-09-11 06:08:00,
2013-09-11 02:26:00,77.9,66.5,29.88,SSW,202,1.1,-999.0,68,-99.99,,,0.00,Acu-Link.com,2013-09-11 06:26:00,
2013-09-11 02:42:00,77.7,66.3,29.87,SSW,202,1.7,-999.0,68,-99.99,,,0.00,Acu-Link.com,2013-09-11 06:42:00,
2013-09-11 03:05:00,77.5,66.5,29.88,NNW,337,1.7,-999.0,69,-99.99,,,0.00,Acu-Link.com,2013-09-11 07:05:00,
2013-09-11 03:23:00,77.2,66.6,29.89,SSE,157,2.7,-999.0,70,-99.99,,,0.00,Acu-Link.com,2013-09-11 07:23:00,
2013-09-11 04:46:00,76.6,66.5,29.88,SSE,157,3.2,-999.0,71,-99.99,,,0.00,Acu-Link.com,2013-09-11 08:46:00,
2013-09-11 05:06:00,76.6,66.5,29.88,SW,225,4.2,-999.0,71,-99.99,,,0.00,Acu-Link.com,2013-09-11 09:06:00,
2013-09-11 05:59:00,76.1,66.4,29.89,SSE,157,0.0,-999.0,72,-99.99,,,0.00,Acu-Link.com,2013-09-11 09:59:00,
2013-09-11 06:14:00,76.1,66.4,29.90,ESE,112,0.0,-999.0,72,-99.99,,,0.00,Acu-Link.com,2013-09-11 10:14:00,
2013-09-11 06:39:00,70.5,65.1,29.90,SE,135,0.0,-999.0,83,-99.99,,,0.00,Acu-Link.com,2013-09-11 10:39:00,
2013-09-11 06:54:00,69.1,64.7,29.90,SE,135,0.0,-999.0,86,-99.99,,,0.00,Acu-Link.com,2013-09-11 10:54:00,
2013-09-11 07:11:00,68.2,64.8,29.90,SSE,157,0.0,-999.0,89,-99.99,,,0.00,Acu-Link.com,2013-09-11 11:11:00,
2013-09-11 07:29:00,68.2,64.8,29.90,ESE,112,0.0,-999.0,89,-99.99,,,0.00,Acu-Link.com,2013-09-11 11:29:00,
2013-09-11 07:46:00,70.2,66.5,29.91,South,180,2.2,-999.0,88,-99.99,,,0.00,Acu-Link.com,2013-09-11 11:46:00,
2013-09-11 08:13:00,72.9,67.8,29.91,SW,225,1.1,-999.0,84,-99.99,,,0.00,Acu-Link.com,2013-09-11 12:13:00,
2013-09-11 08:33:00,73.6,67.8,29.91,South,180,2.7,-999.0,82,-99.99,,,0.00,Acu-Link.com,2013-09-11 12:33:00,
2013-09-11 08:56:00,74.5,68.3,29.92,South,180,2.2,-999.0,81,-99.99,,,0.00,Acu-Link.com,2013-09-11 12:56:00,
2013-09-11 09:29:00,78.8,69.8,29.91,South,180,3.7,-999.0,74,-99.99,,,0.00,Acu-Link.com,2013-09-11 13:29:00,
2013-09-11 09:44:00,79.9,70.5,29.91,WSW,247,3.7,-999.0,73,-99.99,,,0.00,Acu-Link.com,2013-09-11 13:44:00,
2013-09-11 10:27:00,79.9,70.5,29.91,WSW,247,2.2,-999.0,73,-99.99,,,0.00,Acu-Link.com,2013-09-11 14:27:00,
2013-09-11 10:42:00,83.1,71.4,29.91,ENE,67,1.7,-999.0,68,-99.99,,,0.00,Acu-Link.com,2013-09-11 14:42:00,
2013-09-11 10:58:00,83.3,71.6,29.90,South,180,4.7,-999.0,68,-99.99,,,0.00,Acu-Link.com,2013-09-11 14:58:00,
2013-09-11 11:13:00,84.7,72.1,29.91,East,90,4.7,-999.0,66,-99.99,,,0.00,Acu-Link.com,2013-09-11 15:13:00,
2013-09-11 11:28:00,85.1,72.9,29.90,West,270,4.2,-999.0,67,-99.99,,,0.00,Acu-Link.com,2013-09-11 15:28:00,
2013-09-11 11:43:00,86.0,72.4,29.90,East,90,4.2,-999.0,64,-99.99,,,0.00,Acu-Link.com,2013-09-11 15:43:00,
2013-09-11 11:58:00,86.0,72.8,29.91,ESE,112,2.7,-999.0,65,-99.99,,,0.00,Acu-Link.com,2013-09-11 15:58:00,
2013-09-11 12:13:00,85.3,72.2,29.91,East,90,5.3,-999.0,65,-99.99,,,0.00,Acu-Link.com,2013-09-11 16:13:00,
2013-09-11 12:29:00,86.4,72.8,29.90,ESE,112,4.2,-999.0,64,-99.99,,,0.00,Acu-Link.com,2013-09-11 16:29:00,
2013-09-11 12:44:00,87.4,73.2,29.90,ESE,112,3.7,-999.0,63,-99.99,,,0.00,Acu-Link.com,2013-09-11 16:44:00,
2013-09-11 12:59:00,87.4,73.2,29.89,South,180,3.7,-999.0,63,-99.99,,,0.00,Acu-Link.com,2013-09-11 16:59:00,
2013-09-11 13:14:00,86.9,72.8,29.88,South,180,3.7,-999.0,63,-99.99,,,0.00,Acu-Link.com,2013-09-11 17:14:00,
2013-09-11 13:29:00,88.7,72.5,29.88,SSE,157,4.2,-999.0,59,-99.99,,,0.00,Acu-Link.com,2013-09-11 17:29:00,
2013-09-11 13:44:00,88.5,71.8,29.87,East,90,2.2,-999.0,58,-99.99,,,0.00,Acu-Link.com,2013-09-11 17:44:00,
2013-09-11 14:15:00,88.3,71.6,29.87,NE,45,5.3,-999.0,58,-99.99,,,0.00,Acu-Link.com,2013-09-11 18:15:00,
2013-09-11 14:30:00,86.7,70.6,29.86,South,180,2.7,-999.0,59,-99.99,,,0.00,Acu-Link.com,2013-09-11 18:30:00,
2013-09-11 14:45:00,86.2,70.7,29.86,WNW,292,3.7,-999.0,60,-99.99,,,0.00,Acu-Link.com,2013-09-11 18:45:00,
2013-09-11 15:00:00,87.1,72.0,29.86,NE,45,3.2,-999.0,61,-99.99,,,0.00,Acu-Link.com,2013-09-11 19:00:00,
2013-09-11 15:30:00,86.4,71.3,29.85,South,180,2.2,-999.0,61,-99.99,,,0.00,Acu-Link.com,2013-09-11 19:30:00,
2013-09-11 15:46:00,87.1,72.0,29.84,NE,45,2.2,-999.0,61,-99.99,,,0.00,Acu-Link.com,2013-09-11 19:46:00,
2013-09-11 16:01:00,86.4,70.8,29.84,SSE,157,2.2,-999.0,60,-99.99,,,0.00,Acu-Link.com,2013-09-11 20:01:00,
2013-09-11 16:16:00,88.3,71.6,29.84,ENE,67,4.2,-999.0,58,-99.99,,,0.00,Acu-Link.com,2013-09-11 20:16:00,
2013-09-11 16:32:00,89.2,71.4,29.83,East,90,3.2,-999.0,56,-99.99,,,0.00,Acu-Link.com,2013-09-11 20:32:00,
2013-09-11 16:47:00,88.5,71.3,29.82,West,270,4.7,-999.0,57,-99.99,,,0.00,Acu-Link.com,2013-09-11 20:47:00,
2013-09-11 17:02:00,88.3,70.1,29.82,West,270,3.7,-999.0,55,-99.99,,,0.00,Acu-Link.com,2013-09-11 21:02:00,
2013-09-11 17:17:00,86.5,68.9,29.82,West,270,3.2,-999.0,56,-99.99,,,0.00,Acu-Link.com,2013-09-11 21:17:00,
2013-09-11 17:32:00,84.2,69.7,29.82,East,90,3.7,-999.0,62,-99.99,,,0.00,Acu-Link.com,2013-09-11 21:32:00,
2013-09-11 17:47:00,84.4,69.5,29.82,ESE,112,4.2,-999.0,61,-99.99,,,0.00,Acu-Link.com,2013-09-11 21:47:00,
2013-09-11 18:19:00,85.5,70.0,29.82,NNE,22,2.2,-999.0,60,-99.99,,,0.00,Acu-Link.com,2013-09-11 22:19:00,
2013-09-11 18:34:00,83.5,68.6,29.84,NE,45,2.2,-999.0,61,-99.99,,,0.00,Acu-Link.com,2013-09-11 22:34:00,
2013-09-11 18:55:00,82.0,68.1,29.85,West,270,2.2,-999.0,63,-99.99,,,0.00,Acu-Link.com,2013-09-11 22:55:00,
2013-09-11 19:16:00,82.0,68.1,29.84,North,0,0.0,-999.0,63,-99.99,,,0.00,Acu-Link.com,2013-09-11 23:16:00,
2013-09-11 19:32:00,81.5,69.0,29.85,South,180,0.0,-999.0,66,-99.99,,,0.00,Acu-Link.com,2013-09-11 23:32:00,
2013-09-11 19:49:00,79.3,67.4,29.86,SSE,157,0.0,-999.0,67,-99.99,,,0.00,Acu-Link.com,2013-09-11 23:49:00,
2013-09-11 20:07:00,76.8,65.8,29.85,SW,225,0.0,-999.0,69,-99.99,,,0.00,Acu-Link.com,2013-09-12 00:07:00,
2013-09-11 20:27:00,76.8,65.8,29.86,East,90,1.1,-999.0,69,-99.99,,,0.00,Acu-Link.com,2013-09-12 00:27:00,
2013-09-11 20:52:00,75.7,65.2,29.86,South,180,0.0,-999.0,70,-99.99,,,0.00,Acu-Link.com,2013-09-12 00:52:00,
2013-09-11 21:08:00,74.5,64.5,29.86,West,270,0.0,-999.0,71,-99.99,,,0.00,Acu-Link.com,2013-09-12 01:08:00,
2013-09-11 21:23:00,74.3,64.3,29.87,WNW,292,0.0,-999.0,71,-99.99,,,0.00,Acu-Link.com,2013-09-12 01:23:00,
2013-09-11 22:11:00,73.8,64.2,29.87,West,270,2.2,-999.0,72,-99.99,,,0.00,Acu-Link.com,2013-09-12 02:11:00,
2013-09-11 23:16:00,69.4,63.7,29.86,SSE,157,0.0,-999.0,82,-99.99,,,0.00,Acu-Link.com,2013-09-12 03:16:00,
2013-09-11 23:32:00,68.7,63.7,29.86,WSW,247,0.0,-999.0,84,-99.99,,,0.00,Acu-Link.com,2013-09-12 03:32:00,
2013-09-11 23:49:00,68.7,63.7,29.86,South,180,0.0,-999.0,84,-99.99,,,0.00,Acu-Link.com,2013-09-12 03:49:00,